Hourly Data Report for May 06, 2012

All times are specified in Local Standard Time (LST). Add 1 hour to adjust for Daylight Saving Time where and when it is observed.

ST. JOHN'S INTL A
NEWFOUNDLAND

47°37'07.000" N
52°45'09.000" W
140.50 m
8403505
71801
YYT

Download Data

Hourly Data (May 2012)
Hourly Data Report for May 6, 2012
Temp Definition
°C
Dew Point Temp Definition
°C
Rel Hum Definition
%
Wind Dir Definition
10's deg

Wind Spd Definition
km/h
Visibility Definition
km
Stn Press Definition
kPa
Hmdx Definition


Wind Chill Definition


Weather Definition


TIME
00:30 2.4 2.5 101 3 14 0.2 99.91     Drizzle,Fog
01:30 2.0 2.1 101 3 13 0.2 99.88     Drizzle,Fog
02:30 2.0 2.1 101 3 12 0.2 99.85     Drizzle,Fog
03:30 1.8 1.9 101 2 13 0.2 99.85     Drizzle,Fog
04:30 1.8 1.9 101 4 10 0.2 99.86     Drizzle,Fog
05:30 2.0 2.1 101 1 8 0.2 99.89     Drizzle,Fog
06:30 3.0 3.1 101 1 8 0.2 99.89     Drizzle,Fog
07:30 3.7 3.8 101 3 12 0.2 99.91     Drizzle,Fog
08:30 4.1 4.2 101 3 9 0.2 99.90     Drizzle,Fog
09:30 4.6 4.7 101 3 11 0.2 99.89     Fog
10:30 4.3 4.4 101 4 10 0.2 99.91     Fog
11:30 4.6 4.7 101 2 14 0.2 99.89     Fog
12:30 4.8 4.9 101 2 11 0.4 99.90     Fog
13:30 4.8 4.9 101 2 14 0.2 99.88     Fog
14:30 4.3 4.4 101 3 14 0.2 99.88     Fog
15:30 4.2 4.3 101 2 13 0.2 99.88     Fog
16:30 3.7 3.8 101 3 13 0.2 99.89     Fog
17:30 3.6 3.7 101 2 12 0.2 99.90     Fog
18:30 3.3 3.3 100 2 16 0.2 99.92     Fog
19:30 3.4 3.5 101 2 12 0.2 99.94     Drizzle,Fog
20:30 3.4 3.4 100 2 12 0.2 99.99     Drizzle,Fog
21:30 3.3 3.4 101 3 9 0.2 99.98     Drizzle,Fog
22:30 3.5 3.5 100 3 15 0.2 99.96     Rain,Fog
23:30 3.3 3.3 100 5 15 0.2 99.94     Drizzle,Fog

Notes on Data Quality.

Legend

  • E = Estimated
  • M = Missing
  • NA = Not Available
Date modified: